Regional Weather Roundup
Issued by NWS

Home | Current Version | Previous Version | Graphics & Text | Print | Product List | Glossary On
Versions: 1 2 3 4 5 6 7 8 9 10 11 12 13 14 15 16 17 18 19 20 21 22 23 24 25 26 27 28 29 30 31 32 33 34 35 36 37 38 39 40 41 42 43 44 45 46 47 48 49 50
978
ASUS44 KMEG 250410
RWRTN
TENNESSEE HOURLY STATE WEATHER ROUNDUP
NATIONAL WEATHER SERVICE MEMPHIS TN
1100 PM CDT MON APR 24 2017

TNZ002-004-019-021-049-052-054-088>092-250500-
WEST TENNESSEE

CITY           SKY/WX    TMP DP  RH WIND       PRES   REMARKS
MEMPHIS INTL   PTCLDY    63  56  78 SE12      29.77R
NWS MEMPHIS      N/A     60 N/A N/A MISG        N/A
JACKSON        CLEAR     56  55  97 S5        29.79R
DYERSBURG      CLEAR     62  56  80 S5        29.78S
SOMERVILLE     CLEAR     59  55  88 SE6       29.77F
UNION CITY     CLEAR     61  55  82 S7        29.76S
BOLIVAR        CLEAR     55  54  94 CALM      29.79S
PARIS          CLEAR     55  54  94 S6        29.78S
HUNTINGDON     PTCLDY    59  57  94 SW3       29.78S
LEXINGTON      CLEAR     54  54 100 CALM      29.78F FOG
SAVANNAH       CLEAR     50  50 100 SE3       29.78F FOG
$$

TNZ008-025-027-028-033-062-065-066-250500-
NORTH MIDDLE TENNESSEE

CITY           SKY/WX    TMP DP  RH WIND       PRES   REMARKS
NASHVILLE      CLEAR     57  55  93 S3        29.77S
PORTLAND       CLEAR     55  54  94 CALM      29.76S
CLARKSVILLE    CLEAR     58  53  84 W5        29.77R
SMYRNA         CLEAR     55  55 100 CALM      29.78S FOG
COOKEVILLE     CLOUDY    55  55 100 CALM      29.76S
GALLATIN       CLEAR     57  55  94 CALM      29.79S
CROSSVILLE     PTCLDY    55  52  89 NW3       29.77F
$$

TNZ061-075-076-078-094-096-097-250500-
SOUTH MIDDLE TENNESSEE

CITY           SKY/WX    TMP DP  RH WIND       PRES   REMARKS
FAYETTEVILLE     N/A     55  55 100 CALM      29.78S
TULLAHOMA      CLEAR     54  52  94 CALM      29.78F
WINCHESTER     CLOUDY    54  54 100 SE3       29.79S
MCMINNVILLE    MOCLDY    54  54 100 CALM      29.78S VSB 1/2
COLUMBIA       CLEAR    N/A N/A N/A CALM      29.77S
SHELBYVILLE    CLEAR     54  54 100 CALM      29.78F
$$

TNZ017-018-042-046-047-250500-
NORTHEAST TENNESSEE

CITY           SKY/WX    TMP DP  RH WIND       PRES   REMARKS
TRI CITIES     CLOUDY    54  50  86 E7        29.77F
ELIZABETHTON   CLOUDY    54  54 100 CALM      29.76F
$$

TNZ012-013-036-069-073-074-250500-
CENTRAL EAST TENNESSEE

CITY           SKY/WX    TMP DP  RH WIND       PRES   REMARKS
KNOXVILLE      PTCLDY    57  53  86 NE8       29.73F
OAK RIDGE      PTCLDY    61  52  72 CALM      29.76S
DOWNTOWN KNOXV CLEAR     57  55  94 CALM      29.75F
GATLINBURG     CLEAR     54  52  94 CALM      29.76R
MORRISTOWN     CLEAR     57  52  82 NE6G13    29.76S
JACKSBORO      PTCLDY    59  57  94 CALM      29.79S
$$

TNZ083-085-099-250500-
SOUTHEAST TENNESSEE

CITY           SKY/WX    TMP DP  RH WIND       PRES   REMARKS
CHATTANOOGA    CLEAR     59  55  87 W3        29.74F
$$

SKY/WX REPORTED AS FAIR MEANS FEW OR NO CLOUDS BELOW
12 THOUSAND FEET.





USA.gov is the U.S. government's official web portal to all federal, state and local government web resources and services.